GW3385 Weather Reports


time (UTC)temp
C
wind
direction
speed
KPH
gust
KPH
rain 1hr
cm
rain 24hr
cm
rain mn
cm
humidity
%
barometer
mb
20260831214609 25 244 8.0 22.5 0.00 0.00 0.00 72 1012.3
20260831214052 25 116 6.4 20.9 0.00 0.00 0.00 74 1012.2
20260831213555 25 177 6.4 20.9 0.00 0.00 0.00 73 1012.4
20260831213101 25 209 8.0 20.9 0.00 0.00 0.00 73 1012.4
20260831212556 25 175 9.7 19.3 0.00 0.00 0.00 73 1012.5
20260831212059 25 201 6.4 16.1 0.00 0.00 0.00 73 1012.5
20260831211607 24 0 6.4 16.1 0.00 0.00 0.00 75 1012.5
20260831211056 24 196 6.4 16.1 0.00 0.00 0.00 74 1012.6
20260831210555 24 190 8.0 19.3 0.00 0.00 0.00 76 1012.6
20260831210057 24 291 8.0 19.3 0.00 0.00 0.00 75 1012.7
20260831205554 24 282 9.7 17.7 0.00 0.00 0.00 74 1012.7
20260831205056 24 307 6.4 22.5 0.00 0.00 0.00 74 1012.7
20260831204609 24 236 11.3 22.5 0.00 0.00 0.00 74 1012.7
20260831204057 24 263 9.7 19.3 0.00 0.00 0.00 75 1012.7
20260831203555 24 188 8.0 20.9 0.00 0.00 0.00 75 1012.7
20260831203116 24 214 9.7 22.5 0.00 0.00 0.00 75 1012.8
20260831202551 24 260 11.3 22.5 0.00 0.00 0.00 75 1012.8
20260831202054 24 222 6.4 19.3 0.00 0.00 0.00 73 1012.8
20260831201607 24 271 9.7 19.3 0.00 0.00 0.00 73 1012.8
20260831201057 24 180 8.0 19.3 0.00 0.00 0.00 73 1012.8
20260831200556 24 290 6.4 19.3 0.00 0.00 0.00 74 1012.9
20260831200111 24 300 8.0 19.3 0.00 0.00 0.00 74 1012.8
20260831195556 24 215 8.0 19.3 0.00 0.00 0.00 74 1012.9
20260831195055 24 130 6.4 17.7 0.00 0.00 0.00 74 1012.9
20260831194642 24 254 8.0 16.1 0.00 0.00 0.00 74 1012.9
20260831194052 24 311 6.4 16.1 0.00 0.00 0.00 75 1012.9
20260831193551 24 218 4.8 17.7 0.00 0.00 0.00 75 1013.2
20260831193100 24 253 6.4 17.7 0.00 0.00 0.00 75 1013.1
20260831192555 24 300 8.0 19.3 0.00 0.00 0.00 75 1013.1
20260831192055 24 261 6.4 19.3 0.00 0.00 0.00 76 1013.1
20260831191602 24 286 9.7 19.3 0.00 0.00 0.00 76 1013.1
20260831191058 24 304 6.4 17.7 0.00 0.00 0.00 75 1013.2
20260831190554 24 246 9.7 17.7 0.00 0.00 0.00 76 1013.2
20260831190109 24 141 4.8 16.1 0.00 0.00 0.00 77 1013.2
20260831185552 23 205 6.4 17.7 0.00 0.00 0.00 76 1013.2
20260831185051 24 148 8.0 17.7 0.00 0.00 0.00 75 1013.2
20260831184603 24 224 6.4 17.7 0.00 0.00 0.00 76 1013.2
20260831184055 24 282 4.8 17.7 0.00 0.00 0.00 76 1013.2
20260831183555 24 298 8.0 17.7 0.00 0.00 0.00 76 1013.2
20260831183107 24 188 6.4 17.7 0.00 0.00 0.00 75 1013.3
20260831182553 24 154 8.0 14.5 0.00 0.00 0.00 75 1013.2
20260831182058 23 203 1.6 16.1 0.00 0.00 0.00 76 1013.3
20260831181609 23 199 8.0 16.1 0.00 0.00 0.00 76 1013.3
20260831181055 23 174 3.2 16.1 0.00 0.00 0.00 76 1013.4
20260831180556 23 208 6.4 16.1 0.00 0.00 0.00 76 1013.4
20260831180111 23 225 4.8 16.1 0.00 0.00 0.00 77 1013.4
20260831175557 23 168 4.8 14.5 0.00 0.00 0.00 77 1013.3
20260831175054 23 184 4.8 17.7 0.00 0.00 0.00 76 1013.3
20260831174600 23 268 4.8 17.7 0.00 0.00 0.00 77 1013.3
20260831174055 23 183 4.8 16.1 0.00 0.00 0.00 77 1013.3
20260831173552 23 178 9.7 16.1 0.00 0.00 0.00 76 1013.3
20260831173055 23 300 4.8 16.1 0.00 0.00 0.00 76 1013.3
20260831172555 23 268 6.4 14.5 0.00 0.00 0.00 76 1013.3
20260831172055 24 221 6.4 14.5 0.00 0.00 0.00 74 1013.2
20260831171605 24 135 3.2 11.3 0.00 0.00 0.00 74 1013.2
20260831171052 23 244 3.2 11.3 0.00 0.00 0.00 75 1013.2
20260831170555 23 184 3.2 11.3 0.00 0.00 0.00 75 1013.1
20260831170101 23 0 0.0 12.9 0.00 0.00 0.00 76 1013.1
20260831165555 23 210 4.8 12.9 0.00 0.00 0.00 75 1013.1
20260831165051 23 197 4.8 11.3 0.00 0.00 0.00 75 1013.1
20260831164558 23 204 1.6 11.3 0.00 0.00 0.00 75 1013.0
20260831164054 23 125 4.8 11.3 0.00 0.00 0.00 74 1012.9
20260831163553 23 82 3.2 11.3 0.00 0.00 0.00 75 1012.9
20260831163056 23 196 1.6 9.7 0.00 0.00 0.00 75 1012.9
20260831162553 23 165 1.6 8.0 0.00 0.00 0.00 75 1012.9
20260831162052 23 271 3.2 8.0 0.00 0.00 0.00 75 1012.9
20260831161556 23 219 1.6 6.4 0.00 0.00 0.00 75 1012.9
20260831161053 23 190 0.0 6.4 0.00 0.00 0.00 76 1012.9
20260831160555 23 185 0.0 8.0 0.00 0.00 0.00 76 1012.9
20260831160103 23 44 1.6 8.0 0.00 0.00 0.00 76 1012.9
20260831155554 23 201 1.6 9.7 0.00 0.00 0.00 76 1012.9
20260831155052 22 103 1.6 9.7 0.00 0.00 0.00 77 1012.9
20260831154633 22 106 3.2 12.9 0.00 0.00 0.00 76 1012.8
20260831154056 22 69 0.0 12.9 0.00 0.00 0.00 77 1012.9
20260831153555 22 107 0.0 8.0 0.00 0.00 0.00 76 1012.8
20260831153118 22 0 3.2 8.0 0.00 0.00 0.00 76 1012.7
20260831152555 22 84 0.0 6.4 0.00 0.00 0.00 76 1012.7
20260831152055 22 82 1.6 6.4 0.00 0.00 0.00 76 1012.8
20260831151620 22 47 1.6 6.4 0.00 0.00 0.00 76 1012.7
20260831151051 22 0 0.0 4.8 0.00 0.00 0.00 78 1012.7
20260831150554 21 0 0.0 4.8 0.00 0.00 0.00 79 1012.7
20260831150104 21 0 0.0 0.0 0.00 0.00 0.00 82 1012.7
20260831145551 21 0 0.0 0.0 0.00 0.00 0.00 84 1012.7
20260831145054 20 0 0.0 0.0 0.00 0.00 0.00 85 1012.7
20260831144601 20 0 0.0 0.0 0.00 0.00 0.00 86 1012.6
20260831144055 20 0 0.0 0.0 0.00 0.00 0.00 87 1012.5
20260831143555 19 0 0.0 0.0 0.00 0.00 0.00 88 1012.5
20260831143101 19 0 0.0 0.0 0.00 0.00 0.00 88 1012.4
20260831142556 18 0 0.0 0.0 0.00 0.00 0.00 88 1012.3
20260831142055 18 0 0.0 0.0 0.00 0.00 0.00 88 1012.3
20260831141607 18 0 0.0 0.0 0.00 0.00 0.00 89 1012.2
20260831141053 18 0 0.0 0.0 0.00 0.00 0.00 89 1012.1
20260831140552 18 0 0.0 0.0 0.00 0.00 0.00 89 1012.0
20260831135553 18 0 0.0 0.0 0.00 0.00 0.00 89 1011.8
20260831135056 18 0 0.0 0.0 0.00 0.00 0.00 88 1011.7
20260831134600 18 0 0.0 0.0 0.00 0.00 0.00 88 1011.6
20260831134052 18 0 0.0 0.0 0.00 0.00 0.00 88 1011.7
20260831133555 18 0 0.0 0.0 0.00 0.00 0.00 88 1011.7
20260831133058 18 0 0.0 0.0 0.00 0.00 0.00 88 1011.6
20260831132556 18 0 0.0 0.0 0.00 0.00 0.00 89 1011.5
20260831132055 18 0 0.0 0.0 0.00 0.00 0.00 88 1011.5
20260831131601 18 0 0.0 1.6 0.00 0.00 0.00 88 1011.6
20260831131054 18 0 0.0 3.2 0.00 0.00 0.00 88 1011.7
20260831130557 18 0 0.0 3.2 0.00 0.00 0.00 88 1011.6
20260831130111 18 0 0.0 0.0 0.00 0.00 0.00 88 1011.5
20260831125552 18 0 0.0 0.0 0.00 0.00 0.00 88 1011.5
20260831125056 18 0 0.0 0.0 0.00 0.00 0.00 88 1011.5
20260831124610 18 0 0.0 0.0 0.00 0.00 0.00 88 1011.4
20260831124056 18 0 0.0 0.0 0.00 0.00 0.00 88 1011.4
20260831123555 18 0 0.0 1.6 0.00 0.00 0.00 88 1011.4
20260831123109 18 0 0.0 3.2 0.00 0.00 0.00 88 1011.4
20260831122559 18 0 0.0 3.2 0.00 0.00 0.00 88 1011.4
20260831122055 18 349 0.0 4.8 0.00 0.00 0.00 88 1011.3
20260831121609 18 0 0.0 4.8 0.00 0.00 0.00 88 1011.3
20260831121051 18 341 0.0 1.6 0.00 0.00 0.00 88 1011.3
20260831120552 18 0 0.0 1.6 0.00 0.00 0.00 87 1011.3
20260831120101 18 0 0.0 1.6 0.00 0.00 0.00 87 1011.3
20260831115551 18 0 0.0 0.0 0.00 0.00 0.00 87 1011.3
20260831115051 18 0 0.0 0.0 0.00 0.00 0.00 87 1011.3
20260831114608 18 0 0.0 0.0 0.00 0.00 0.00 87 1011.3
20260831114056 18 0 0.0 3.2 0.00 0.00 0.00 87 1011.2
20260831113556 18 0 0.0 3.2 0.00 0.00 0.00 87 1011.2
20260831113105 18 0 0.0 3.2 0.00 0.00 0.00 87 1011.2
20260831112556 18 0 0.0 4.8 0.00 0.00 0.00 87 1011.2
20260831112052 18 0 0.0 4.8 0.00 0.00 0.00 87 1011.3
20260831111600 18 0 0.0 4.8 0.00 0.00 0.00 86 1011.3
20260831111052 18 0 1.6 4.8 0.00 0.00 0.00 86 1011.3
20260831110554 18 0 0.0 3.2 0.00 0.00 0.00 85 1011.3
20260831105556 19 0 0.0 1.6 0.00 0.00 0.00 85 1011.4
20260831105054 19 0 0.0 3.2 0.00 0.00 0.00 85 1011.3
20260831104611 19 0 0.0 3.2 0.00 0.00 0.00 85 1011.4
20260831104056 19 0 0.0 3.2 0.00 0.00 0.00 84 1011.4
20260831103555 19 0 0.0 0.0 0.00 0.00 0.00 84 1011.4
20260831103056 19 0 0.0 0.0 0.00 0.00 0.00 84 1011.4
20260831102555 19 0 0.0 0.0 0.00 0.00 0.00 84 1011.4
20260831102055 20 0 0.0 0.0 0.00 0.00 0.00 84 1011.5
20260831101607 20 0 0.0 3.2 0.00 0.00 0.00 84 1011.4
20260831101051 20 0 0.0 3.2 0.00 0.00 0.00 84 1011.4
20260831100552 20 0 0.0 3.2 0.00 0.00 0.00 83 1011.4
20260831100118 20 0 0.0 1.6 0.00 0.00 0.00 83 1011.6
20260831095552 20 0 0.0 1.6 0.00 0.00 0.00 83 1011.6
20260831095052 20 0 0.0 3.2 0.00 0.00 0.00 82 1011.5
20260831094557 20 0 0.0 3.2 0.00 0.00 0.00 82 1011.4
20260831094057 20 0 0.0 1.6 0.00 0.00 0.00 82 1011.4
20260831093556 20 0 0.0 3.2 0.00 0.00 0.00 82 1011.4
20260831093108 20 0 0.0 8.0 0.00 0.00 0.00 82 1011.4
20260831092555 20 0 0.0 8.0 0.00 0.00 0.00 82 1011.4
20260831092056 20 185 1.6 8.0 0.00 0.00 0.00 82 1011.3
20260831091603 20 0 0.0 3.2 0.00 0.00 0.00 81 1011.4
20260831091052 20 0 0.0 3.2 0.00 0.00 0.00 81 1011.4
20260831090552 20 0 0.0 0.0 0.00 0.00 0.00 81 1011.5
20260831090056 20 0 0.0 1.6 0.00 0.00 0.00 81 1011.5
20260831085557 20 0 0.0 4.8 0.00 0.00 0.00 82 1011.6
20260831085056 20 0 1.6 4.8 0.00 0.00 0.00 82 1011.5
20260831084611 20 78 1.6 4.8 0.00 0.00 0.00 82 1011.5
20260831084055 20 0 0.0 0.0 0.00 0.00 0.00 82 1011.5
20260831083555 20 0 0.0 0.0 0.00 0.00 0.00 82 1011.5
20260831083108 20 0 0.0 0.0 0.00 0.00 0.00 83 1011.4
20260831082552 20 0 0.0 4.8 0.00 0.00 0.00 83 1011.5
20260831082055 20 0 0.0 4.8 0.00 0.00 0.00 83 1011.5
20260831081601 20 84 0.0 4.8 0.00 0.00 0.00 84 1011.4
20260831081052 20 0 0.0 3.2 0.00 0.00 0.00 84 1011.4
20260831080555 20 0 0.0 3.2 0.00 0.00 0.00 84 1011.5
20260831080105 20 63 0.0 3.2 0.00 0.00 0.00 84 1011.6
20260831075556 20 0 0.0 3.2 0.00 0.00 0.00 84 1011.5
20260831075056 20 63 0.0 3.2 0.00 0.00 0.00 84 1011.6
20260831074557 20 63 0.0 0.0 0.00 0.00 0.00 84 1011.4
20260831074055 20 0 0.0 3.2 0.00 0.00 0.00 84 1011.3
20260831073555 20 0 0.0 3.2 0.00 0.00 0.00 84 1011.4
20260831073105 20 0 0.0 0.0 0.00 0.00 0.00 84 1011.2
20260831072555 20 0 0.0 0.0 0.00 0.00 0.00 84 1011.2
20260831072052 20 0 0.0 0.0 0.00 0.00 0.00 84 1011.1
20260831071609 20 0 0.0 0.0 0.00 0.00 0.00 84 1011.1
20260831071052 20 0 0.0 0.0 0.00 0.00 0.00 83 1011.1
20260831070556 20 0 0.0 0.0 0.00 0.00 0.00 83 1011.2
20260831070116 20 0 0.0 0.0 0.00 0.00 0.00 83 1011.1
20260831065555 20 0 0.0 3.2 0.00 0.00 0.00 83 1011.1
20260831065058 20 0 0.0 3.2 0.00 0.00 0.00 82 1011.2
20260831064604 20 0 0.0 4.8 0.00 0.00 0.00 82 1011.2
20260831064051 20 0 0.0 6.4 0.00 0.00 0.00 82 1011.2
20260831063552 20 91 3.2 6.4 0.00 0.00 0.00 81 1011.1
20260831063100 20 90 1.6 4.8 0.00 0.00 0.00 82 1011.1
20260831062558 20 0 0.0 0.0 0.00 0.00 0.00 82 1011.2
20260831062057 20 0 0.0 0.0 0.00 0.00 0.00 82 1011.2
20260831061557 20 0 0.0 3.2 0.00 0.00 0.00 82 1011.3
20260831061056 20 0 0.0 3.2 0.00 0.00 0.00 82 1011.3
20260831060555 21 0 0.0 3.2 0.00 0.00 0.00 81 1011.2
20260831060059 21 0 0.0 0.0 0.00 0.00 0.00 82 1011.3
20260831055552 21 0 0.0 0.0 0.00 0.00 0.00 82 1011.3
20260831055055 21 0 0.0 4.8 0.00 0.00 0.00 82 1011.2
20260831054605 21 0 0.0 4.8 0.00 0.00 0.00 82 1011.2
20260831054052 21 107 0.0 1.6 0.00 0.00 0.00 82 1011.2
20260831053559 21 0 0.0 3.2 0.00 0.00 0.00 82 1011.3
20260831053101 21 0 0.0 4.8 0.00 0.00 0.00 81 1011.2
20260831052556 21 181 0.0 4.8 0.00 0.00 0.00 81 1011.1
20260831052055 21 0 0.0 4.8 0.00 0.00 0.00 81 1011.2
20260831051559 21 0 0.0 4.8 0.00 0.00 0.00 80 1011.1
20260831051055 21 0 0.0 4.8 0.00 0.00 0.00 80 1011.2
20260831050555 21 0 0.0 6.4 0.00 0.00 0.00 80 1011.2
20260831050059 21 0 0.0 6.4 0.00 0.00 0.00 79 1011.3
20260831045556 21 189 1.6 6.4 0.00 0.00 0.00 79 1011.3
20260831045056 21 0 0.0 6.4 0.00 0.00 0.00 79 1011.3
20260831044607 21 164 0.0 4.8 0.00 0.00 0.00 78 1011.3
20260831044055 21 0 0.0 0.0 0.00 0.00 0.00 78 1011.2
20260831043555 21 0 0.0 0.0 0.00 0.00 0.00 78 1011.2
20260831043058 21 0 0.0 0.0 0.00 0.00 0.00 78 1011.1
20260831042557 21 0 0.0 4.8 0.00 0.00 0.00 79 1011.0
20260831042056 21 0 0.0 4.8 0.00 0.00 0.00 79 1010.9
20260831041603 21 0 1.6 4.8 0.00 0.00 0.00 79 1010.9
20260831041056 21 197 1.6 4.8 0.00 0.00 0.00 78 1010.9
20260831040556 21 217 0.0 3.2 0.00 0.00 0.00 78 1010.9
20260831040108 21 0 0.0 4.8 0.00 0.00 0.00 78 1010.8
20260831035555 22 178 0.0 6.4 0.00 0.00 0.00 78 1010.8
20260831035052 22 0 1.6 6.4 0.00 0.00 0.00 78 1010.7
20260831034558 22 182 0.0 0.0 0.00 0.00 0.00 78 1010.6
20260831034058 22 0 0.0 0.0 0.00 0.00 0.00 78 1010.5
20260831033556 22 0 0.0 0.0 0.00 0.00 0.00 77 1010.3
20260831033102 22 0 0.0 0.0 0.00 0.00 0.00 77 1010.3
20260831032556 22 0 0.0 0.0 0.00 0.00 0.00 77 1010.2
20260831032058 22 0 0.0 0.0 0.00 0.00 0.00 78 1010.1
20260831031601 22 0 0.0 6.4 0.00 0.00 0.00 78 1010.1
20260831031059 22 0 0.0 6.4 0.00 0.00 0.00 78 1010.1
20260831030556 22 182 0.0 4.8 0.00 0.00 0.00 77 1010.0
20260831030121 22 0 1.6 6.4 0.00 0.00 0.00 77 1010.0
20260831025556 22 185 3.2 6.4 0.00 0.00 0.00 77 1010.1
20260831025056 23 0 1.6 4.8 0.00 0.00 0.00 76 1010.1
20260831024626 23 190 0.0 4.8 0.00 0.00 0.00 75 1010.1
20260831024056 23 0 1.6 4.8 0.00 0.00 0.00 75 1010.1
20260831023555 23 190 0.0 3.2 0.00 0.00 0.00 74 1010.0
20260831023128 23 0 0.0 6.4 0.00 0.00 0.00 73 1010.0
20260831022556 23 257 0.0 8.0 0.00 0.00 0.00 73 1009.9
20260831022056 23 0 1.6 11.3 0.00 0.00 0.00 73 1009.9
20260831021623 23 0 3.2 11.3 0.00 0.00 0.00 72 1009.9
20260831021052 23 198 6.4 12.9 0.00 0.00 0.00 72 1009.9
20260831020556 23 183 4.8 12.9 0.00 0.00 0.00 72 1009.8
20260831020116 23 164 3.2 8.0 0.00 0.00 0.00 72 1009.8
20260831015555 23 0 3.2 11.3 0.00 0.00 0.00 71 1009.8
20260831015055 23 180 4.8 14.5 0.00 0.00 0.00 71 1009.8
20260831014631 23 164 6.4 14.5 0.00 0.00 0.00 69 1009.7
20260831014055 24 203 6.4 14.5 0.00 0.00 0.00 70 1009.8
20260831013556 24 197 6.4 14.5 0.00 0.00 0.00 70 1009.9
20260831013102 24 234 3.2 14.5 0.00 0.00 0.00 71 1009.8
20260831012555 24 194 6.4 14.5 0.00 0.00 0.00 70 1009.8
20260831012052 24 162 8.0 14.5 0.00 0.00 0.00 69 1009.7
20260831011617 24 196 3.2 14.5 0.00 0.00 0.00 71 1009.8
20260831011051 24 174 6.4 16.1 0.00 0.00 0.00 70 1009.8
20260831010555 24 271 6.4 16.1 0.00 0.00 0.00 71 1009.7
20260831010106 24 315 4.8 16.1 0.00 0.00 0.00 73 1009.7
20260831005556 23 270 9.7 17.7 0.00 0.00 0.00 74 1009.7
20260831005058 23 285 4.8 17.7 0.00 0.00 0.00 74 1009.6
20260831004606 23 301 4.8 19.3 0.00 0.00 0.00 75 1009.7
20260831004056 23 189 9.7 22.5 0.00 0.00 0.00 73 1009.6
20260831003555 24 189 11.3 22.5 0.00 0.00 0.00 72 1009.6
20260831003105 24 273 8.0 20.9 0.00 0.00 0.00 72 1009.6
20260831002600 24 267 9.7 20.9 0.00 0.00 0.00 72 1009.7
20260831002055 25 272 6.4 17.7 0.00 0.00 0.00 71 1009.6
20260831001605 25 136 9.7 17.7 0.00 0.00 0.00 71 1009.5
20260831001120 25 227 4.8 17.7 0.00 0.00 0.00 72 1009.5
20260831000555 25 292 9.7 19.3 0.00 0.00 0.00 71 1009.5
20260831000105 25 188 6.4 19.3 0.00 0.00 0.00 71 1009.5
20260830235551 25 267 8.0 19.3 0.00 0.00 0.00 69 1009.7
20260830235056 25 261 11.3 19.3 0.00 0.00 0.00 67 1009.6
20260830234601 25 265 6.4 16.1 0.00 0.00 0.00 69 1009.6
20260830234055 25 180 6.4 20.9 0.00 0.00 0.00 67 1009.7
20260830233555 25 235 4.8 20.9 0.00 0.00 0.00 67 1009.6
20260830233108 25 294 14.5 20.9 0.00 0.00 0.00 65 1009.5
20260830232558 26 218 8.0 19.3 0.00 0.00 0.00 67 1009.6
20260830232055 26 271 11.3 19.3 0.00 0.00 0.00 63 1009.6
20260830231607 26 224 11.3 19.3 0.00 0.00 0.00 64 1009.7
20260830231055 26 290 6.4 19.3 0.00 0.00 0.00 61 1009.7
20260830230552 26 254 9.7 19.3 0.00 0.00 0.00 63 1009.7
20260830230106 27 188 8.0 16.1 0.00 0.00 0.00 62 1009.9
20260830225556 27 160 6.4 19.3 0.00 0.00 0.00 62 1009.8
20260830225056 26 183 6.4 19.3 0.00 0.00 0.00 63 1009.7
20260830224621 26 265 8.0 19.3 0.00 0.00 0.00 65 1009.9
20260830224056 26 282 11.3 20.9 0.00 0.00 0.00 63 1009.9
20260830223556 26 256 9.7 20.9 0.00 0.00 0.00 63 1009.9
20260830223103 27 251 8.0 19.3 0.00 0.00 0.00 63 1010.0
20260830222559 27 229 8.0 17.7 0.00 0.00 0.00 63 1010.1
20260830222052 27 265 8.0 16.1 0.00 0.00 0.00 63 1010.2
20260830221620 27 208 6.4 17.7 0.00 0.00 0.00 63 1010.2
20260830221052 27 192 9.7 17.7 0.00 0.00 0.00 64 1010.3
20260830220552 27 247 8.0 17.7 0.00 0.00 0.00 63 1010.5
20260830220104 27 181 6.4 19.3 0.00 0.00 0.00 64 1010.4
20260830215556 27 291 8.0 19.3 0.00 0.00 0.00 62 1010.5
20260830215056 27 273 9.7 19.3 0.00 0.00 0.00 65 1010.6